TimeAKST,TemperatureF,Dew PointF,Humidity,Sea Level PressureIn,VisibilityMPH,Wind Direction,Wind SpeedMPH,Gust SpeedMPH,PrecipitationIn,Events,Conditions,WindDirDegrees,DateUTC
12:53 AM,-11.9,-18.0,74,29.84,10.0,Calm,Calm,-,N/A,,Partly Cloudy,0,2013-01-22 09:53:00
1:53 AM,-11.9,-18.0,74,29.83,10.0,Calm,Calm,-,N/A,,Partly Cloudy,0,2013-01-22 10:53:00
3:53 AM,-11.9,-17.0,78,29.81,10.0,Calm,Calm,-,N/A,,Mostly Cloudy,0,2013-01-22 12:53:00
4:53 AM,-9.9,-15.0,78,29.81,10.0,Calm,Calm,-,N/A,,Overcast,0,2013-01-22 13:53:00
5:53 AM,-9.9,-15.0,78,29.80,10.0,Calm,Calm,-,N/A,,Mostly Cloudy,0,2013-01-22 14:53:00
6:53 AM,-9.9,-15.0,78,29.80,10.0,Calm,Calm,-,N/A,,Scattered Clouds,0,2013-01-22 15:53:00
7:53 AM,-11.0,-17.0,75,29.80,10.0,Calm,Calm,-,N/A,,Clear,0,2013-01-22 16:53:00
8:53 AM,-11.9,-17.0,78,29.80,10.0,Calm,Calm,-,N/A,,Clear,0,2013-01-22 17:53:00
9:53 AM,-11.9,-17.0,78,29.80,10.0,Calm,Calm,-,N/A,,Scattered Clouds,0,2013-01-22 18:53:00
10:53 AM,-11.9,-17.0,78,29.79,10.0,Calm,Calm,-,N/A,,Scattered Clouds,0,2013-01-22 19:53:00
11:53 AM,-11.0,-16.1,78,29.78,10.0,Calm,Calm,-,N/A,,Mostly Cloudy,0,2013-01-22 20:53:00
12:53 PM,-8.0,-13.0,79,29.78,10.0,Calm,Calm,-,N/A,,Mostly Cloudy,0,2013-01-22 21:53:00
1:53 PM,-5.1,-9.0,83,29.76,10.0,Calm,Calm,-,N/A,,Mostly Cloudy,0,2013-01-22 22:53:00
2:00 PM,-5.8,-9.4,84,29.72,10.0,Calm,Calm,-,N/A,,Mostly Cloudy,0,2013-01-22 23:00:00
2:17 PM,-5.8,-9.4,84,29.71,10.0,Calm,Calm,-,N/A,,Mostly Cloudy,0,2013-01-22 23:17:00
2:53 PM,-2.9,-7.1,82,29.74,10.0,Calm,Calm,-,N/A,,Mostly Cloudy,0,2013-01-22 23:53:00
3:53 PM,-2.9,-8.0,79,29.73,10.0,Calm,Calm,-,N/A,,Mostly Cloudy,0,2013-01-23 00:53:00
4:53 PM,-5.1,-9.0,83,29.72,10.0,Calm,Calm,-,N/A,,Mostly Cloudy,0,2013-01-23 01:53:00
5:00 PM,-4.0,-9.4,78,29.68,10.0,Calm,Calm,-,N/A,,Overcast,0,2013-01-23 02:00:00
5:53 PM,-5.1,-9.0,83,29.71,10.0,Calm,Calm,-,N/A,,Scattered Clouds,0,2013-01-23 02:53:00
6:53 PM,-5.1,-9.0,83,29.70,10.0,Calm,Calm,-,N/A,,Clear,0,2013-01-23 03:53:00
7:24 PM,-2.2,-7.6,78,29.66,10.0,Calm,Calm,-,N/A,,Mostly Cloudy,0,2013-01-23 04:24:00
7:53 PM,-4.0,-9.0,79,29.70,10.0,Calm,Calm,-,N/A,,Overcast,0,2013-01-23 04:53:00
8:53 PM,-2.9,-8.0,79,29.70,10.0,Calm,Calm,-,N/A,,Overcast,0,2013-01-23 05:53:00
9:53 PM,-2.9,-7.1,82,29.69,10.0,Calm,Calm,-,N/A,,Overcast,0,2013-01-23 06:53:00
10:53 PM,-4.0,-9.0,79,29.68,10.0,Calm,Calm,-,N/A,,Overcast,0,2013-01-23 07:53:00
11:53 PM,-2.9,-8.0,79,29.68,10.0,Calm,Calm,-,N/A,,Overcast,0,2013-01-23 08:53:00